EW2958 Weather Reports


Display with metric or nautical units.
time (UTC)temp
F
wind
direction
speed
MPH
gust
MPH
rain 1hr
in
rain 24hr
in
rain mn
in
humidity
%
barometer
mb
20260505010008 58 269 7.0 16.0 0.00 0.00 0.00 65 1019.9
20260505004518 57 283 6.0 17.0 0.00 0.00 0.00 65 1019.8
20260505003003 56 275 10.0 20.0 0.00 0.00 0.00 67 1019.8
20260505001600 56 287 7.0 20.0 0.00 0.00 0.00 70 1019.7
20260504234615 56 271 10.0 23.0 0.00 0.00 0.00 70 1019.4
20260504233053 56 267 10.0 23.0 0.00 0.00 0.00 70 1019.2
20260504231555 55 287 13.0 20.0 0.00 0.00 0.00 72 1019.1
20260504230047 55 224 9.0 18.0 0.00 0.00 0.00 76 1018.9
20260504224546 54 262 9.0 19.0 0.00 0.00 0.00 77 1018.9
20260504223043 54 254 8.0 18.0 0.00 0.00 0.00 79 1018.6
20260504221544 53 266 6.0 15.0 0.00 0.00 0.00 81 1018.4
20260504220038 52 269 7.0 15.0 0.00 0.00 0.00 83 1018.2
20260504214538 52 290 9.0 15.0 0.00 0.00 0.00 85 1017.5
20260504213031 52 260 8.0 14.0 0.00 0.00 0.00 85 1017.3
20260504211526 52 260 7.0 14.0 0.00 0.00 0.00 85 1017.1
20260504210023 52 285 6.0 14.0 0.00 0.00 0.00 85 1016.9
20260504204544 53 269 8.0 16.0 0.00 0.00 0.00 85 1016.6
20260504203016 53 298 9.0 16.0 0.00 0.00 0.00 85 1016.4
20260504201513 53 272 5.0 12.0 0.00 0.00 0.00 85 1016.2
20260504200014 53 256 7.0 16.0 0.00 0.00 0.00 85 1016.1
20260504194510 53 276 7.0 15.0 0.00 0.00 0.00 84 1015.9
20260504193012 54 262 9.0 16.0 0.00 0.00 0.00 84 1015.8
20260504191502 54 279 9.0 18.0 0.00 0.00 0.00 84 1015.5
20260504184605 53 233 7.0 13.0 0.00 0.00 0.00 85 1015.1
20260504183100 53 241 5.0 13.0 0.00 0.00 0.00 85 1015.0
20260504181554 54 255 7.0 17.0 0.00 0.00 0.00 85 1014.8
20260504180052 53 264 7.0 14.0 0.00 0.00 0.00 85 1014.7
20260504174552 54 307 8.0 17.0 0.00 0.00 0.00 84 1014.6
20260504173048 54 278 8.0 18.0 0.00 0.00 0.00 83 1014.5
20260504171548 54 270 7.0 14.0 0.00 0.00 0.00 83 1014.3
20260504081549 60 283 2.0 11.0 0.00 0.00 0.00 70 1008.7
20260504044541 64 318 13.0 27.0 0.00 0.00 0.00 57 1007.3
20260504043038 64 11 7.0 24.0 0.00 0.00 0.00 58 1007.2
20260504041534 64 338 11.0 26.0 0.00 0.00 0.00 57 1007.2
20260504040030 65 327 11.0 23.0 0.00 0.00 0.00 57 1007.1
20260504034526 64 324 15.0 26.0 0.00 0.00 0.00 57 1007.1
20260504033025 64 354 12.0 25.0 0.00 0.00 0.00 57 1007.3
20260504031522 64 302 10.0 24.0 0.00 0.00 0.00 58 1007.6
20260504030028 63 299 12.0 25.0 0.00 0.00 0.00 59 1007.8
20260504024516 63 343 13.0 29.0 0.00 0.01 0.00 59 1008.0
20260504023012 61 333 10.0 28.0 0.00 0.01 0.00 61 1008.1
20260504021510 61 338 6.0 23.0 0.00 0.01 0.00 63 1008.4
20260504020012 61 343 14.0 32.0 0.00 0.18 0.00 62 1008.5
20260504014508 61 276 13.0 23.0 0.00 0.18 0.00 60 1008.6
20260504013009 62 16 9.0 26.0 0.00 0.18 0.00 59 1008.7
20260504011506 62 317 7.0 20.0 0.00 0.18 0.00 59 1008.8